Location: Christian Reformed Church
(43.0975°N, 93.8113°W)
Time: 09:22:51
(UTC+00:00)

IRS-P3 - Pass Details

Date: 21 March 2026
Orbit: 810 x 816 km, 99.0° (Epoch: 20 April)

Event Time Altitude Azimuth Distance (km) Brightness Sun altitude
Rises 00:58:59 0° 182° (S) 3,327 7.3 -6.5°
Reaches altitude 10° 01:01:25 10° 188° (S) 2,400 6.6 -7.0°
Maximum altitude 01:06:29 45° 261° (W) 1,108 5.5 -7.9°
Drops below altitude 10° 01:11:35 10° 333° (NNW) 2,414 7.1 -8.8°
Sets 01:14:03 0° 340° (NNW) 3,349 7.7 -9.2°
